LEMUR-2-MONSON (42839 NORAD) Tracking and Keplerian Element Data

This shows tracking and keplerian element data for the satellite.

Feedback or suggestion? Click here.




ElementValue
Catalog42839
NameLEMUR-2-MONSON
Epoch Orbit41250
Epoch Day35.01037786
Epoch Year2025
RAAN220.313
Inclination97.3925
Eccentricity0.0008994
Argument of Perigee309.0597
Mean Anonmoly50.9833
Mean Motion15.11496951
Decay Rate0.00014026
L11 42839U 17042Q 25035.01037786 .00014026 00000+0 83037-3 0 9993
L22 42839 97.3925 220.3130 0008994 309.0597 50.9833 15.11496951412509



Live tracking and technical data element details for LEMUR-2-MONSON (NORAD 42839). LEMUR-2-MONSON can be tracked NOW for your location showing map with azimuth and elevation plus other details from your city location.







IsCatalogInMostPopularTable: catalog: 42839, numindb: 428
Update: records affected: 1



GetName: 42839 LEMUR-2-MONSON

Hit Count: updated at: Thu, 15 May 2025 19:26:04 GMT